sat.trackr.live / text

‹ back to catalog

SHIYAN-27 OBJECT F

NORAD 63604 · 2025-078F

PAYLOAD ACTIVE UNKNOWN

§ Identity

Operator
Country
PRC
Launch date
2025-04-18
Launch site
TAISC
Launch vehicle
Mass (kg)
RCS (m²)

External: N2YO · Heavens-Above · Gunter

§ Orbital elements

Epoch: 2026-05-25T04:26:06.022752Z

Period
106.10 min
Inclination
99.6903°
Eccentricity
0.0001234
Mean motion
13.57239318 rev/d
Perigee alt
1,044.8 km
Apogee alt
1,046.7 km
Semi-major
7,423.9 km
B*
7.0862e-5
RAAN
152.7442°
Arg perigee
93.1254°
Mean anomaly
267.0026°
Rev number
5,441

§ Raw data

SHIYAN-27 OBJECT F1 63604U 25078F   26145.18479193  .00000006  00000+0  70862-4 0  99932 63604  99.6903 152.7442 0001234  93.1254 267.0026 13.57239318 54415

JSON: /api/v1/satellites/63604 · /tle

For live sub-satellite position, see the globe view (requires WebGL).

§ Visibility from observer

Set your observer location to see the next 7 days of passes ≥ 10°. The values pass through the URL so the page stays shareable.

No JS? Fill the form by hand. The geolocation button needs JavaScript.